Wind_Speed
15 15 16 14 12 9 8 7 5 4 3 3 3 2 2 3 4 5 7 8 8 9 9 9 9 11 12 13 13 14 14 14 17 20 21 21 20 18 18 19 21 21 22
17 17 17 16 13 11 10 9 7 5 4 3 2 2 2 3 4 4 6 7 7 8 9 11 12 12 12 13 13 14 15 14 13 13 13 11 10 11 10 14 17 19 20
20 19 18 17 15 13 12 10 8 6 5 4 4 4 4 5 6 6 6 6 6 7 8 9 11 12 12 14 15 14 14 14 13 9 5 6 5 12 4 7 11 15 19
18 18 17 17 16 14 13 11 9 7 6 6 6 5 5 6 6 7 7 8 9 10 10 10 10 11 12 13 14 14 14 13 13 7 6 6 11 6 10 8 12 10 4
17 18 18 17 15 16 13 11 10 9 9 8 7 7 7 7 7 7 8 9 9 9 10 10 11 11 13 14 14 14 13 12 11 11 10 7 7 9 10 16 13 19 23
15 16 16 17 17 16 14 13 12 12 12 11 10 8 8 7 7 7 7 8 9 9 9 8 9 11 14 15 15 14 13 11 10 9 9 10 8 9 7 8 15 15 16
15 16 18 19 19 17 16 15 16 15 14 14 11 10 9 9 9 8 8 8 8 8 9 10 12 14 16 16 16 14 12 11 10 9 8 8 9 9 11 11 13 14 14
15 17 18 18 18 18 18 18 18 18 16 14 13 12 12 12 11 10 9 8 8 9 10 13 16 19 19 18 16 15 16 15 14 13 11 8 9 9 10 11 11 12 9
12 14 13 14 15 17 19 19 19 18 17 16 15 15 14 13 13 11 9 9 10 11 13 16 18 18 18 17 15 13 13 12 12 12 10 9 9 9 8 8 9 9 6
9 10 13 14 15 15 17 19 18 17 18 17 16 16 15 14 13 11 11 10 11 13 15 17 17 17 16 14 12 10 11 9 9 9 9 9 7 6 7 5 4 6 7
13 12 12 12 12 12 14 16 15 15 17 17 16 16 15 14 12 12 12 11 12 15 16 16 17 16 14 12 9 8 8 8 7 7 7 8 6 4 6 7 6 5 7
13 9 8 7 7 7 10 12 11 10 14 15 15 15 14 13 13 12 12 12 14 15 17 17 16 15 13 13 10 10 10 9 10 11 10 7 6 5 5 5 5 5 7
7 3 2 2 3 3 4 4 6 9 10 14 14 13 11 11 11 12 12 14 16 17 18 17 15 13 12 12 10 10 10 8 9 10 11 10 9 6 5 6 5 6 6
3 1 2 1 3 4 6 8 7 5 7 10 10 10 11 10 11 13 14 16 18 18 17 15 14 13 13 12 11 9 10 12 9 11 11 11 10 7 7 7 7 6 8
5 3 4 6 8 8 7 5 3 6 8 8 9 10 12 15 14 15 17 18 18 16 14 14 13 12 12 10 8 10 11 12 13 11 10 11 12 13 10 6 6 7 7
7 6 7 8 9 9 6 5 5 5 7 8 10 14 15 14 15 17 19 18 16 14 13 14 13 14 12 11 14 12 10 10 15 12 11 11 12 12 13 12 11 14 12
8 9 11 11 11 10 10 8 7 8 8 11 12 13 15 16 16 17 16 14 13 14 13 13 13 13 13 14 14 12 13 11 13 12 12 11 9 14 12 9 10 12 11
10 10 10 10 11 11 10 10 10 10 11 11 13 15 16 17 17 16 13 13 12 14 13 13 13 14 14 15 16 16 14 13 15 15 14 12 10 10 9 8 9 8 9
11 11 12 13 12 12 12 12 12 12 14 15 15 16 17 17 15 15 13 13 14 16 15 15 15 15 15 14 17 16 13 13 13 13 14 11 11 9 11 9 10 9 9
13 13 14 14 14 13 13 13 12 13 13 15 17 16 15 16 15 14 15 15 17 17 17 17 17 17 18 18 16 15 12 12 13 12 12 12 14 10 10 11 10 11 9
14 15 15 16 17 16 15 15 14 13 14 17 16 16 16 16 16 16 17 17 18 18 19 19 19 19 19 18 16 14 13 13 12 11 11 11 10 10 10 11 13 13 13
16 16 17 15 15 17 16 14 14 15 16 16 16 16 16 17 18 19 20 20 19 20 21 20 21 19 18 16 15 14 14 15 14 13 13 12 10 10 10 13 14 11 11
17 17 18 19 17 17 17 17 16 16 19 19 19 18 18 19 21 21 21 21 19 19 20 17 17 16 13 14 13 14 14 15 17 17 13 11 10 13 11 14 13 12 11
18 18 18 18 19 17 17 18 19 19 20 21 21 21 22 23 23 21 20 21 21 20 19 19 18 17 15 14 13 12 14 15 18 18 17 14 14 14 13 14 14 14 17
18 19 20 19 20 19 19 20 20 20 21 23 25 26 24 24 25 24 24 24 25 22 21 21 18 18 17 14 12 12 11 12 12 13 15 18 16 14 14 14 15 17 16
20 20 20 21 23 23 22 22 21 21 22 25 25 24 22 23 23 23 25 23 21 22 23 22 22 23 18 15 14 14 14 17 18 15 14 17 15 14 14 15 15 15 13
Wind_Direction
212 203 219 231 236 235 241 252 266 280 302 327 337 6 7 12 7 16 21 19 17 18 18 17 8 2 358 356 350 346 339 311 296 293 283 277 277 278 271 276 270 268 271
200 202 214 226 230 230 236 245 249 256 266 267 276 268 280 311 322 336 352 354 354 355 1 360 358 359 359 354 352 350 349 348 336 322 315 314 302 265 267 263 261 252 252
199 203 210 221 224 226 235 242 248 255 267 275 279 282 288 295 318 328 331 336 344 352 355 357 356 355 354 354 353 352 353 352 347 352 330 332 321 323 342 314 277 262 256
201 203 209 215 221 224 230 239 250 258 266 273 275 275 273 278 299 309 324 333 340 344 349 350 350 351 354 352 348 343 339 338 337 343 320 273 281 313 302 288 313 313 303
196 199 210 216 218 224 227 237 246 253 260 261 258 262 265 277 292 303 312 318 323 326 331 335 342 350 353 350 345 339 335 333 328 334 329 325 298 266 266 280 283 294 294
195 198 205 211 217 224 229 237 242 249 256 259 257 259 269 278 282 289 295 305 312 317 321 325 331 336 338 338 335 332 329 327 322 323 323 319 317 311 303 287 288 299 297
201 197 201 208 216 224 232 239 245 247 249 256 261 268 270 274 275 280 288 294 299 305 312 314 316 319 320 319 316 314 313 315 317 318 318 316 308 298 291 291 290 294 292
213 209 211 215 221 229 235 242 247 251 254 260 265 267 268 267 267 271 274 278 289 295 302 307 309 312 313 315 311 301 296 295 294 293 295 294 290 296 292 282 285 295 279
218 217 217 219 225 232 239 246 250 252 257 259 261 262 262 262 263 264 268 278 290 300 306 310 310 312 313 312 313 306 296 296 296 292 290 286 292 290 277 291 289 275 293
219 209 211 217 221 229 245 251 251 254 256 254 257 259 259 259 263 269 275 282 291 299 306 308 308 310 308 307 308 304 297 293 293 294 289 286 276 285 287 276 273 291 278
224 215 217 227 235 243 250 251 246 248 254 254 253 255 259 264 265 265 269 277 291 300 305 305 306 305 300 296 297 292 295 294 289 289 290 282 278 274 283 279 275 281 289
223 214 228 239 254 251 246 243 233 241 249 253 251 257 262 260 258 261 268 285 296 299 299 299 298 296 293 288 282 273 267 283 285 278 275 283 281 284 295 288 296 295 292
206 217 265 359 331 317 289 245 260 254 250 259 263 260 261 257 259 261 272 289 299 299 295 292 289 288 284 284 278 278 280 275 277 281 272 263 262 271 278 271 290 303 302
178 138 72 273 289 285 290 291 293 283 259 258 257 255 252 256 256 271 282 295 299 296 293 290 286 284 284 281 272 270 276 280 273 279 277 268 255 263 278 285 276 282 296
101 61 292 312 319 320 331 342 295 262 261 258 253 254 261 257 265 276 287 295 295 293 286 284 284 284 281 279 262 253 258 272 282 280 279 275 273 262 250 260 274 272 269
35 9 351 348 345 341 336 321 298 278 263 247 245 245 254 264 273 279 289 292 290 285 280 279 278 278 277 267 269 264 258 274 275 283 278 280 284 280 282 267 256 257 265
17 9 0 355 350 343 333 320 306 292 265 249 251 257 262 268 274 281 286 288 286 280 277 275 274 275 273 270 270 263 260 268 264 269 270 273 269 266 258 249 250 257 261
358 351 347 344 341 337 331 322 307 289 276 265 262 267 272 275 279 280 281 282 278 278 275 269 269 272 273 272 271 267 264 259 260 262 266 263 261 260 250 222 247 250 265
342 343 338 332 330 325 318 308 296 288 286 283 277 273 274 276 274 278 279 276 277 271 268 271 271 272 270 270 272 267 258 254 261 262 263 256 251 252 254 229 241 242 245
336 335 330 325 322 319 313 307 300 291 287 278 273 274 275 274 275 276 278 277 271 271 269 270 269 266 269 270 269 263 255 245 254 258 261 250 248 241 249 241 252 240 237
331 330 328 324 318 317 313 308 302 297 286 282 282 281 280 277 277 279 278 277 275 272 271 271 271 274 272 273 264 254 246 239 249 251 251 245 249 249 245 234 255 245 239
333 328 324 319 317 317 315 310 304 299 292 289 286 284 281 279 279 281 279 273 272 271 272 271 273 272 271 268 257 248 244 240 245 247 241 241 251 249 233 251 238 213 223
330 326 319 318 320 315 310 305 300 291 291 290 289 287 284 281 281 279 277 275 271 270 269 266 266 269 263 261 254 250 246 244 245 255 243 235 248 239 253 214 223 249 263
326 317 318 317 312 309 304 300 301 298 296 293 290 287 284 284 283 279 277 273 269 263 259 262 261 261 260 249 252 255 251 242 232 241 240 242 242 251 248 251 263 260 263
321 317 313 309 307 307 304 303 300 296 293 291 291 291 289 288 285 278 275 270 272 266 258 254 254 257 255 246 253 257 259 244 223 239 239 240 245 247 247 251 257 260 262
318 316 312 310 309 308 306 306 303 298 294 292 292 291 287 282 280 280 281 277 269 267 263 262 264 273 262 242 257 256 242 243 260 265 240 220 227 240 241 249 252 253 246
Height
1496 1497 1497 1499 1500 1502 1502 1502 1502 1502 1503 1502 1501 1500 1499 1498 1496 1495 1493 1492 1491 1490 1490 1488 1487 1486 1485 1484 1483 1481 1480 1478 1476 1473 1472 1472 1474 1475 1476 1476 1478 1476 1480
1492 1493 1493 1495 1497 1499 1499 1500 1499 1500 1501 1501 1501 1499 1499 1498 1497 1496 1494 1493 1491 1490 1489 1488 1487 1486 1484 1483 1482 1480 1479 1478 1476 1475 1472 1470 1471 1472 1474 1475 1476 1473 1475
1487 1488 1489 1492 1494 1496 1497 1498 1498 1498 1499 1499 1499 1499 1498 1497 1497 1496 1495 1493 1492 1490 1489 1488 1487 1486 1484 1483 1482 1480 1479 1478 1477 1476 1477 1474 1471 1470 1472 1470 1470 1469 1468
1484 1486 1487 1489 1491 1493 1493 1495 1496 1497 1497 1498 1497 1497 1497 1496 1495 1494 1493 1492 1491 1490 1489 1488 1486 1486 1484 1483 1482 1481 1479 1478 1477 1477 1476 1476 1475 1473 1472 1470 1468 1467 1464
1480 1482 1484 1487 1489 1490 1491 1492 1493 1494 1495 1494 1494 1495 1495 1494 1493 1493 1492 1491 1490 1489 1489 1488 1487 1485 1483 1483 1482 1481 1479 1478 1477 1475 1474 1475 1474 1474 1473 1470 1469 1467 1465
1478 1479 1481 1483 1485 1487 1488 1489 1489 1490 1491 1492 1492 1492 1492 1492 1492 1491 1490 1489 1489 1489 1487 1486 1486 1486 1484 1482 1481 1480 1479 1478 1477 1474 1474 1474 1473 1472 1471 1470 1467 1467 1466
1477 1478 1478 1479 1480 1482 1484 1485 1486 1486 1487 1489 1488 1489 1489 1489 1490 1489 1488 1487 1486 1486 1486 1485 1484 1483 1483 1481 1480 1479 1477 1477 1476 1474 1472 1472 1472 1471 1470 1469 1467 1464 1464
1474 1474 1475 1475 1476 1478 1480 1481 1482 1483 1484 1485 1486 1486 1486 1485 1485 1486 1485 1484 1484 1484 1484 1483 1482 1480 1479 1478 1476 1476 1475 1474 1473 1472 1471 1470 1469 1468 1467 1467 1466 1464 1462
1471 1473 1475 1475 1475 1475 1476 1477 1477 1478 1480 1480 1481 1481 1481 1482 1483 1483 1482 1482 1482 1481 1480 1479 1479 1478 1476 1474 1473 1472 1473 1471 1469 1469 1468 1467 1466 1466 1465 1463 1463 1463 1461
1470 1469 1469 1471 1472 1472 1473 1473 1474 1475 1476 1477 1478 1478 1478 1478 1479 1480 1480 1479 1478 1478 1477 1476 1475 1473 1473 1471 1470 1471 1470 1468 1467 1466 1466 1465 1464 1464 1463 1461 1461 1462 1461
1467 1467 1467 1468 1469 1469 1470 1471 1469 1471 1473 1474 1474 1474 1475 1476 1477 1476 1476 1476 1475 1475 1474 1473 1471 1470 1469 1468 1468 1468 1467 1466 1465 1464 1463 1462 1462 1461 1460 1459 1458 1459 1458
1465 1468 1468 1468 1468 1468 1467 1470 1467 1465 1470 1473 1473 1473 1473 1473 1473 1473 1474 1473 1473 1471 1471 1469 1467 1466 1465 1464 1464 1465 1463 1462 1461 1461 1460 1460 1459 1459 1457 1456 1456 1456 1456
1465 1467 1468 1468 1468 1468 1469 1468 1468 1464 1467 1470 1471 1472 1472 1472 1472 1471 1470 1469 1469 1469 1467 1465 1463 1461 1460 1460 1461 1460 1460 1458 1458 1458 1456 1455 1455 1456 1454 1454 1454 1454 1455
1465 1467 1467 1466 1465 1465 1466 1463 1462 1462 1466 1467 1469 1469 1470 1472 1470 1470 1468 1466 1465 1464 1464 1463 1460 1456 1456 1456 1456 1457 1457 1456 1455 1454 1452 1451 1451 1452 1451 1451 1451 1452 1452
1464 1465 1465 1465 1464 1462 1461 1461 1462 1461 1461 1462 1464 1467 1467 1467 1466 1467 1465 1461 1460 1460 1459 1459 1458 1454 1453 1453 1453 1453 1453 1453 1452 1451 1450 1449 1447 1448 1448 1449 1449 1449 1449
1470 1469 1468 1466 1464 1463 1461 1460 1459 1458 1458 1459 1461 1462 1463 1463 1462 1461 1460 1458 1457 1455 1454 1455 1454 1452 1450 1450 1448 1448 1449 1448 1448 1448 1447 1446 1445 1445 1445 1445 1446 1446 1447
1472 1470 1468 1467 1465 1464 1463 1461 1459 1457 1456 1457 1458 1458 1459 1458 1457 1455 1453 1452 1453 1453 1450 1451 1450 1448 1447 1446 1445 1445 1444 1444 1445 1445 1444 1443 1443 1442 1442 1443 1443 1443 1444
1473 1470 1468 1465 1463 1462 1461 1461 1461 1460 1458 1455 1454 1454 1455 1454 1453 1451 1448 1448 1448 1450 1447 1447 1445 1444 1442 1441 1441 1440 1439 1440 1440 1440 1440 1439 1439 1440 1439 1441 1441 1441 1441
1473 1469 1467 1466 1462 1460 1459 1457 1456 1456 1456 1456 1453 1450 1450 1450 1448 1445 1444 1444 1443 1446 1443 1441 1440 1439 1437 1437 1435 1435 1435 1436 1436 1436 1435 1435 1436 1436 1436 1437 1438 1439 1439
1473 1469 1466 1465 1462 1458 1457 1455 1454 1453 1452 1450 1450 1448 1446 1445 1444 1441 1439 1438 1440 1440 1437 1436 1434 1432 1431 1431 1431 1430 1430 1431 1432 1432 1431 1432 1432 1433 1433 1434 1434 1435 1435
1471 1467 1466 1464 1462 1458 1455 1453 1452 1450 1449 1448 1446 1443 1442 1441 1439 1435 1434 1434 1434 1434 1431 1430 1428 1426 1425 1425 1425 1425 1426 1428 1428 1428 1428 1429 1429 1429 1429 1431 1431 1431 1431
1469 1466 1463 1462 1459 1456 1452 1450 1450 1448 1447 1445 1442 1440 1438 1436 1433 1431 1430 1429 1428 1427 1426 1424 1422 1421 1420 1419 1419 1420 1422 1423 1424 1424 1425 1426 1426 1426 1426 1427 1426 1427 1428
1467 1464 1463 1460 1457 1454 1450 1447 1446 1444 1442 1440 1437 1434 1433 1431 1428 1426 1424 1423 1422 1420 1419 1418 1417 1416 1416 1415 1414 1415 1417 1418 1420 1420 1420 1422 1422 1422 1422 1422 1423 1424 1424
1467 1464 1460 1457 1455 1452 1448 1445 1442 1439 1436 1434 1431 1429 1426 1424 1422 1420 1418 1416 1415 1414 1413 1413 1412 1411 1410 1410 1410 1409 1410 1412 1414 1415 1416 1417 1418 1418 1419 1419 1419 1419 1419
1465 1461 1458 1454 1450 1446 1442 1439 1436 1433 1430 1427 1424 1422 1420 1417 1415 1413 1411 1410 1408 1407 1407 1406 1406 1405 1404 1405 1406 1406 1406 1407 1408 1410 1411 1412 1412 1413 1414 1414 1414 1414 1414
1460 1457 1453 1449 1444 1440 1436 1433 1430 1427 1424 1420 1418 1415 1414 1411 1409 1406 1403 1402 1401 1401 1401 1400 1400 1399 1399 1400 1402 1402 1403 1404 1405 1404 1404 1405 1407 1408 1409 1410 1409 1409 1409